Regional Weather Roundup
Issued by NWS New Orleans/Baton Rouge, LA

Home | Current Version | Previous Version | Text Only | Print | Product List | Glossary On
Versions: 1 2 3 4 5 6 7 8 9 10 11 12 13 14 15 16 17 18 19 20 21 22 23 24 25 26 27 28 29 30 31 32 33 34 35 36 37 38 39 40 41 42 43 44 45 46 47 48 49 50
345
ASUS44 KLIX 221601
RWRLIX
NEW ORLEANS REGIONAL WEATHER ROUNDUP
NATIONAL WEATHER SERVICE NEW ORLEANS LA
1100 AM CDT FRI AUG 22 2014

NOTE: "FAIR" INDICATES FEW OR NO CLOUDS BELOW 12,000 FEET WITH NO
      SIGNIFICANT WEATHER AND/OR OBSTRUCTIONS TO VISIBILITY.
      SKY/WX - SKY CONDITION AND SIGNIFICANT WEATHER.
      TMP - AIR TEMPERATURE.     DP    - DEWPOINT TEMPERATURE.
      RH  - RELATIVE HUMIDITY.   PRES  - PRESSURE.
      HI  - HEAT INDEX.          WCI   - WIND CHILL INDEX.

*  THESE STATIONS ARE NOT NWS OR FAA STATIONS AND ARE NOT UNDER
   NWS QUALITY CONTROL.

LAZ038-040-048-061>063-065>067-069-221700-
SOUTHEAST LOUISIANA

CITY           SKY/WX    TMP DP  RH WIND       PRES   REMARKS
N.O. AUDUBON     N/A     92  77  60 MISG        N/A  HX 106
N.O. INTL ARPT MOSUNNY   88  74  63 NW9       30.12S HX  96
N.O. LAKEFRONT SUNNY     87  76  69 N7        30.13R HX  97
N.O. DOWNTOWN*   N/A     90  72  55 NW6       30.13R HX  96
SLIDELL        SUNNY     87  74  64 N5        30.12R HX  95
BATON ROUGE    MOSUNNY   87  77  72 W6        30.13R HX  99
BOOTHVILLE     SUNNY     88  75  65 VRB6      30.13R HX  97
BELLE CHASSE   MOSUNNY   90  72  55 CALM      30.11S HX  97
BOGALUSA*        N/A     89  74  61 N3        30.14R HX  98
GALLIANO*      NOT AVBL
NEW ROADS*       N/A     86  77  74 W7        30.13S HX  96
GONZALES*        N/A     85  80  85 CALM      30.12S HX  98
HAMMOND*       NOT AVBL
HOUMA*         MOSUNNY   90  72  55 CALM      30.12S HX  96
PORT FOURCHON* SUNNY     90  75  62 NE7       30.13S HX 100

$$

MSZ070-080>082-221700-
SOUTHERN MISSISSIPPI

CITY           SKY/WX    TMP DP  RH WIND       PRES   REMARKS
MCCOMB         SUNNY     87  74  64 VRB6      30.14S HX  95
GULFPORT       SUNNY     91  73  55 VRB5      30.11S HX  99
BILOXI         SUNNY     91  73  55 VRB3      30.11S HX 100
PASCAGOULA     SUNNY     91  73  55 VRB7      30.11S HX  99

$$

COASTAL OBSERVATIONS
LAKE AND NEARSHORE STATIONS

STATION/POSITION TIME  TEMP    WIND        PRES    WAVE
                       AIR SEA DIR/SP/G            HT/PER
                 (UTC) (F)     (DEG/KT/KT) (MB)    (FT/S)
PASCAGOULA       1500   90     340/  5/  7 1019.3
WAVELAND YACHT   1500   85     350/  3/  4 1019.3
GRAND ISLE       1500   87 89   10/  4/  6 1020.7
SOUTHWEST PASS   1500   88 87  360/  8/  9 1020.4
NEW CANAL        1500   84 84  350/  6/  7 1020.6
SHELL BEACH      1500   83 82  360/  3/  5 1019.9

OFFSHORE STATIONS

STATION/POSITION TIME  TEMP    WIND        PRES    WAVE
                       AIR SEA DIR/SP/G            HT/PER
                 (UTC) (F)     (DEG/KT/KT) (MB)    (FT/S)
64 S DAUPHIN ISL 1510   86 89  340/  8/  8 1020.1

$$




USA.gov is the U.S. government's official web portal to all federal, state and local government web resources and services.